FENGYUN 1C DEB, 30169

Orbit data source: Space-Track

FENGYUN 1C DEB, 30169 is space debris in SSO originally from a launch on Mon, 10 May 1999 UTC launched from the Taiyaun Space Center, China (TSC). Fengyun 1C debris stems from the Chinese weather satellite Fengyun-1C, which was intentionally destroyed by a Chinese anti-satellite missile in 2007. This event dramatically increased the amount of space debris, with thousands of trackable fragments posing hazards to satellites and human spaceflight. The Fengyun 1C debris cloud has become a focal point in discussions about space sustainability and the need for international regulations to prevent the creation of new debris.

Loading next visibility...
Identifier
30169, 1999-025UA
Orbit
SSO
Country
Flag of CNCN / PRC
Related business
Manufacturer
Unknown
Mission
Spacecraft
Bus & Motor
Unknown
Mass
Unknown
Launch date (UTC)
1999-05-10 (27 years ago)
Launch vehicle
Unknown
Launch site
Taiyaun Space Center, China (TSC)
Object type
Payload
Rocket body
Debris
Shape & HBR
Unknown shape, 0.1 m
Radar Cross Section
Medium (>0.1 m² and <1 m²)

Expand to show TLE details & history
Last TLE update: 1 week ago

TLE from 1 week ago
0 FENGYUN 1C DEB
1 30169U 99025UA  26154.19954227  .00011951  00000-0  17551-2 0  9999
2 30169  98.3181 229.7091 0200106  50.9035   7.7608 14.62890001  2351
Epoch: 2026-06-03T04:47Z
TLE epoch observation values (Epoch: 2026-06-03T04:47:20.452Z)
Latitude
58.09624°
Longitude
-107.29473°
Altitude
553.647 km
Speed
7.666 km/s
True Right ascension
14h 24m 48s
True Declination
57° 56' 14"
Sunlit
Object was in daylight at epoch
Visualization orbit readout
Latitude
Unknown
Longitude
Unknown
Altitude
Unknown
Speed
Unknown
Apparent Right ascension
Unknown
Apparent Declination
Unknown
Sunlit
N/A
Visualization observer readout
Local Sidereal Time
00:22:30
Azimuth
Unknown
Elevation
Unknown
Doppler factor
Unknown
Orbital elements
Apogee altitude
822.195 km
Perigee altitude
539.683 km
Semi-major axis
7,059.076 km
Eccentricity
0.02001
Inclination
98.3181°
RAAN
229.7091°
Arg. of periapsis
50.9035°
True anomaly
8.07831°
Mean anomaly
7.7608°
Eccentric anomaly
7.91876°
Mean motion
3.6595 °/min
Orbital period
98.37 mins
BSTAR
0.0017551
Loading maneuver chart data...
Computing Atmospheric mass density...
Loading historical data...
Loading historical data...
Loading historical data...
Loading historical data...
Loading historical data...
Loading historical data...
Loading historical data...

Documentation

Showing up to 5 results
|